User: anonymous   Login
Location: Canyam�s
(41.5996°N, 2.4450°E)
Time: 01:31:55
(UTC+00:00)
Language:

EO-79 - Orbit

View from above orbital plane
View from above orbital plane
View from above satellite
View from above satellite

Ground track
Ground track

The orbit data is extracted from the following two-line orbital elements,

1 40025U 14033R   20297.45667143 +.00000396 +00000-0 +47869-4 0  9994
2 40025 097.9167 221.7541 0011107 234.9378 125.0797 14.89213965344145
Epoch (UTC): 23 October 2020 10:57:36
Eccentricity: 0.0011107
inclination: 97.9167°
perigee height: 592 km
apogee height: 608 km
right ascension of ascending node: 221.7541°
argument of perigee: 234.9378°
revolutions per day: 14.89213965
mean anomaly at epoch: 125.0797°
orbit number at epoch: 34414

The dashed part of the orbit path shows where the satellite is in the earth's shadow,  

DLR